Oxford, AL

9:25 PM CDT on September 26, 2016 (GMT -0500)
Anniston Metro

Weather History for KANB - February, 2014

Change the Weather History Date:

Saturday, February 1, 2014

  Actual Average Record
Temperature  
Mean Temperature 44 °F 44 °F  
Max Temperature 61 °F 55 °F 78 °F (1950)
Min Temperature 26 °F 34 °F 12 °F (1951)
Degree Days  
Heating Degree Days 21    
Month to date heating degree days 21  
Since 1 July heating degree days 1989  
Moisture  
Dew Point 36 °F    
Average Humidity 72    
Maximum Humidity 92    
Minimum Humidity 52    
Precipitation  
Precipitation 0.00 in 0.18 in 2.86 in (1983)
Month to date precipitation 0.00 0.18  
Year to date precipitation 3.05 4.70  
Sea Level Pressure  
Sea Level Pressure 30.14 in    
Wind  
Wind Speed 4 mph (ENE)    
Max Wind Speed 12 mph    
Max Gust Speed 14 mph    
Visibility 9 miles    
Events      
T = Trace of Precipitation, MM = Missing Value Source: NWS Daily Summary

Daily Weather History Graph

Daily Weather History Graph

Search for Another Location

Airport or City:

Trip Planner

Search our weather history database for the weather conditions in past years. The results will help you decide how hot, cold, wet, or windy it might be!

Date:

Astronomy

Feb. 01, 2014 Rise Set
Actual Time 6:39 AM CST 5:14 PM CST
Civil Twilight 6:13 AM CST 5:40 PM CST
Nautical Twilight 5:43 AM CST 6:10 PM CST
Astronomical Twilight 5:14 AM CST 6:39 PM CST
Moon 7:37 AM CST (2/1) 7:39 PM CST (2/1)
Length of Visible Light 11h 27m
Length of Day
10h 35m
Waxing Crescent, 5% of the Moon is Illuminated
Feb 1
Waxing Crescent
Feb 6
First Quarter
Feb 14
Full
Feb 22
Last Quarter
Mar 1
New

Hourly Weather History & Observations

Time (CST) Temp. Windchill Dew Point Humidity Pressure Visibility Wind Dir Wind Speed Gust Speed Precip Events Conditions
12:53 AM 30.0 °F - 21.0 °F 69% 30.16 in 10.0 mi Calm Calm - N/A   Clear
1:53 AM 28.0 °F - 21.9 °F 78% 30.15 in 10.0 mi Calm Calm - N/A   Clear
2:53 AM 28.0 °F - 21.9 °F 78% 30.15 in 10.0 mi Calm Calm - N/A   Clear
3:53 AM 27.0 °F 23.0 °F 21.0 °F 78% 30.14 in 10.0 mi East 3.5 mph - N/A   Clear
4:53 AM 28.0 °F - 21.9 °F 78% 30.15 in 10.0 mi Calm Calm - N/A   Clear
5:11 AM 30.0 °F - 24.1 °F 79% 30.13 in 10.0 mi Calm Calm - N/A   Mostly Cloudy
5:53 AM 33.1 °F 28.7 °F 25.0 °F 72% 30.17 in 10.0 mi East 4.6 mph - N/A   Overcast
6:00 AM 33.1 °F 30.0 °F 24.1 °F 70% 30.14 in 10.0 mi ENE 3.5 mph - N/A   Overcast
6:36 AM 34.0 °F 31.0 °F 25.0 °F 70% 30.15 in 10.0 mi East 3.5 mph - N/A   Overcast
6:46 AM 35.1 °F 32.2 °F 25.0 °F 67% 30.15 in 10.0 mi East 3.5 mph - N/A   Overcast
6:53 AM 35.1 °F 32.2 °F 25.0 °F 67% 30.18 in 10.0 mi East 3.5 mph - N/A   Overcast
7:35 AM 39.0 °F 36.8 °F 33.1 °F 79% 30.15 in 10.0 mi Variable 3.5 mph - N/A   Overcast
7:53 AM 39.9 °F 36.7 °F 35.1 °F 83% 30.19 in 3.0 mi East 4.6 mph - N/A   Haze
8:01 AM 39.0 °F 35.7 °F 36.0 °F 89% 30.16 in 2.0 mi East 4.6 mph - N/A   Overcast
8:09 AM 39.0 °F 34.0 °F 37.0 °F 93% 30.16 in 1.8 mi ENE 6.9 mph - N/A   Overcast
8:53 AM 41.0 °F 35.8 °F 37.9 °F 89% 30.20 in 1.8 mi NE 8.1 mph - N/A   Overcast
9:01 AM 41.0 °F 34.7 °F 37.9 °F 89% 30.17 in 2.0 mi NE 10.4 mph - N/A   Overcast
9:10 AM 42.1 °F 37.1 °F 37.9 °F 85% 30.17 in 4.0 mi NE 8.1 mph - N/A   Overcast
9:53 AM 45.0 °F 41.2 °F 39.0 °F 80% 30.19 in 9.0 mi NE 6.9 mph - N/A   Overcast
10:22 AM 46.9 °F - 39.9 °F 77% 30.16 in 10.0 mi NE 6.9 mph - N/A   Overcast
10:53 AM 50.0 °F - 41.0 °F 71% 30.16 in 10.0 mi NE 6.9 mph - N/A   Overcast
11:53 AM 54.0 °F - 45.0 °F 72% 30.14 in 10.0 mi Calm Calm - N/A   Overcast
12:53 PM 55.0 °F - 46.0 °F 72% 30.12 in 10.0 mi Calm Calm - N/A   Overcast
1:53 PM 57.9 °F - 45.0 °F 62% 30.11 in 10.0 mi SSE 8.1 mph - N/A   Mostly Cloudy
2:18 PM 57.9 °F - 46.0 °F 65% 30.08 in 10.0 mi SSW 3.5 mph - N/A   Scattered Clouds
2:53 PM 60.1 °F - 46.0 °F 60% 30.10 in 10.0 mi South 4.6 mph - N/A   Clear
3:53 PM 59.0 °F - 46.0 °F 62% 30.10 in 10.0 mi South 6.9 mph - N/A   Partly Cloudy
4:53 PM 59.0 °F - 45.0 °F 60% 30.10 in 10.0 mi Calm Calm - N/A   Clear
5:53 PM 50.0 °F - 44.1 °F 80% 30.11 in 10.0 mi Calm Calm - N/A   Clear
6:53 PM 46.0 °F 44.8 °F 42.1 °F 86% 30.13 in 10.0 mi NE 3.5 mph - N/A   Scattered Clouds
7:53 PM 48.0 °F - 43.0 °F 83% 30.13 in 10.0 mi NE 3.5 mph - N/A   Overcast
8:53 PM 45.0 °F 42.6 °F 43.0 °F 93% 30.13 in 10.0 mi NE 4.6 mph - N/A   Clear
9:53 PM 50.0 °F - 46.9 °F 89% 30.11 in 10.0 mi NE 6.9 mph - N/A   Clear
10:53 PM 50.0 °F - 46.9 °F 89% 30.11 in 8.0 mi NNE 6.9 mph - N/A   Clear
11:53 PM 48.9 °F - 46.9 °F 93% 30.10 in 9.0 mi NNE 6.9 mph - N/A   Clear